[[{"header":{"parameterUnit":"m.s-1","parameterCategory":1,"la1":30.2991,"la2":30.254,"lo1":-89.0895,"lo2":-89.0444,"dy":0.0017,"dx":0.0017,"nx":28,"ny":28,"refTime":"2025-05-20T03:00:00:Z","depth":0,"parameterNumber":2,"parameterNumberName":"U-component_of_WINDS"},"data":[0,0,0,0,0,0,0,0,0,0,0,0,0,0,0,0,0,0,0,0,0,0,0,0,0,0,0,0,0,0,0,0,0,0,0,0,0,0,0,0,0,0,0,0,0,0,0,0,0,0,0,0,0,0,0,0,0,0,1.0759,1.0758,0,1.0699,1.0698,1.0697,1.0653,1.0653,1.0652,1.0652,1.0593,1.0592,1.0591,0,0,0,0,0,0,0,0,0,0,0,0,0,1.0839,1.0838,1.0759,1.0758,1.0757,1.0699,1.0698,1.0697,1.0653,1.0653,1.0652,1.0652,1.0593,1.0592,1.059,0,0,0,0,0,0,0,0,0,0,0,0,0,1.0794,1.0838,1.0759,1.0728,1.0725,1.0699,1.0698,1.0697,1.0653,1.0653,1.0652,1.0651,1.0594,1.0592,1.059,1.0591,0,0,1.0585,1.0584,0,0,0,0,0,0,0,0,1.0797,1.0792,1.0733,1.073,1.0726,1.0683,1.0705,1.0662,1.0653,1.068,1.0652,1.0651,1.0623,1.0619,1.0609,1.0588,1.0586,1.0585,1.0584,1.0583,1.0582,0,0,0,0,0,0,0,1.08,1.0794,1.0735,1.0733,1.0728,1.0719,1.0712,1.0696,1.0656,1.0678,1.0675,1.0668,1.0621,1.0611,1.0608,1.0585,1.0585,1.0583,1.0582,1.0581,1.0563,1.0564,0,0,0,0,0,0,1.0808,1.0797,1.0737,1.0733,1.0761,1.0718,1.071,1.0697,1.0656,1.0649,1.0669,1.0666,1.0615,1.061,1.0605,1.0604,1.0583,1.0581,1.058,1.0563,1.0564,1.0564,0,0,0,0,0,0,1.081,1.0803,1.0739,1.0764,1.0755,1.0717,1.0703,1.0697,1.0686,1.0649,1.0642,1.0665,1.0614,1.0608,1.0595,1.0602,1.058,1.0579,1.0562,1.0563,1.0564,1.0602,0,0,0,0,0,0,1.0812,1.0804,1.0802,1.0764,1.0754,1.0729,1.0704,1.0696,1.0683,1.0679,1.0644,1.0637,1.0613,1.0598,1.0593,1.0599,1.0577,1.0561,1.0563,1.0564,1.06,1.0604,1.0607,0,0,0,0,0,1.0815,1.0816,1.0803,1.0796,1.0752,1.0729,1.0724,1.0695,1.0683,1.0683,1.0659,1.0639,1.0602,1.0597,1.0591,1.0596,1.0561,1.0562,1.0564,1.0598,1.0603,1.0607,0,0,0,0,0,0,1.0856,1.081,1.0795,1.0783,1.076,1.0722,1.072,1.0701,1.0681,1.0679,1.0645,1.0637,1.0628,1.0611,1.0607,1.0596,1.0579,1.0579,1.0607,1.0611,1.0615,1.0619,1.0576,0,0,0,0,0,1.0863,1.0848,1.0809,1.0803,1.0792,1.0758,1.0747,1.0727,1.0703,1.0693,1.0669,1.0647,1.063,1.062,1.0603,1.0598,1.059,1.0598,1.0602,1.0605,1.0606,1.0603,1.0607,1.0569,1.0569,1.0569,0,0,1.0879,1.0852,1.0844,1.081,1.079,1.0777,1.075,1.0737,1.0726,1.0691,1.0677,1.0659,1.0633,1.0624,1.0619,1.0609,1.0615,1.0607,1.061,1.0609,1.0605,1.0609,1.0612,1.057,1.0569,1.0569,0,0,1.0899,1.0877,1.087,1.0851,1.0821,1.0799,1.0797,1.0762,1.0748,1.0734,1.0708,1.0696,1.0668,1.0651,1.0638,1.0655,1.0636,1.0651,1.067,1.0668,1.0671,1.0674,1.0681,1.0683,1.0652,1.0652,1.0652,0,1.0922,1.0899,1.0868,1.0856,1.0843,1.0811,1.0804,1.0787,1.0754,1.0746,1.0736,1.0701,1.0681,1.0668,1.0673,1.0663,1.0662,1.0654,1.0673,1.0675,1.0677,1.0683,1.0686,1.0654,1.0654,1.0653,1.0653,0,1.0929,1.0914,1.0912,1.088,1.0867,1.0858,1.0827,1.0817,1.0799,1.0778,1.0766,1.074,1.0718,1.0714,1.0696,1.0699,1.0695,1.0679,1.0662,1.0683,1.0689,1.0691,1.0657,1.0656,1.0655,1.0655,0,0,1.0972,1.0925,1.0924,1.091,1.0876,1.0865,1.0855,1.0833,1.0826,1.0805,1.0797,1.0775,1.0761,1.0747,1.0727,1.0726,1.0742,1.0711,1.071,1.0718,1.0745,1.0757,1.076,1.073,1.073,1.073,1.0748,0,1.0987,1.0966,1.094,1.0929,1.0916,1.0886,1.0878,1.0857,1.0839,1.0826,1.0806,1.0791,1.0774,1.0765,1.0762,1.0741,1.0747,1.0739,1.0722,1.0722,1.0729,1.0762,1.0774,1.0792,1.075,1.075,1.075,0,1.1001,1.0982,1.097,1.0939,1.0932,1.0925,1.0904,1.0891,1.0868,1.0855,1.0841,1.0819,1.081,1.0794,1.0781,1.0776,1.0768,1.0757,1.0757,1.0754,1.0737,1.076,1.0797,1.0799,1.0753,1.0753,1.0753,0,1.1034,1.1005,1.0994,1.0983,1.0946,1.0943,1.0927,1.0904,1.0893,1.0875,1.0868,1.0849,1.0839,1.0826,1.0801,1.0792,1.0791,1.0773,1.078,1.0781,1.078,1.0781,1.0816,1.0776,1.0776,1.0776,1.0776,0,1.1053,1.1047,1.1008,1.1001,1.0995,1.0965,1.0959,1.0942,1.0922,1.0912,1.0886,1.0878,1.0846,1.0835,1.0816,1.0808,1.0804,1.0794,1.0789,1.0796,1.0797,1.0789,1.0788,1.0777,1.0777,1.0776,1.0776,0,1.1087,1.1061,1.1047,1.1015,1.1007,1.1003,1.0975,1.0969,1.095,1.0938,1.0934,1.0904,1.089,1.0864,1.0843,1.083,1.0826,1.0818,1.0834,1.0831,1.084,1.0839,1.0871,1.0874,1.0833,1.0833,1.0833,0,1.1101,1.1095,1.1063,1.1054,1.104,1.1027,1.1016,1.0988,1.0978,1.0953,1.095,1.0933,1.0919,1.0898,1.0875,1.0859,1.0849,1.0862,1.0846,1.0854,1.085,1.085,1.085,1.0865,1.0865,1.0866,1.0866,0,1.1128,1.1116,1.11,1.1082,1.1069,1.1053,1.1036,1.1031,1.0999,1.099,1.0974,1.0963,1.0942,1.0926,1.0908,1.0893,1.0875,1.0871,1.0872,1.0879,1.0889,1.0884,1.0843,1.087,1.087,1.087,1.0869,1.0869,1.1152,1.1146,1.1123,1.1108,1.1092,1.1077,1.1069,1.105,1.1037,1.1017,1.1002,1.0988,1.0968,1.094,1.0928,1.0918,1.0909,1.091,1.091,1.0911,1.0914,1.0891,1.0914,1.0914,1.0914,1.0914,1.0914,0,1.1178,1.1162,1.1148,1.1125,1.1114,1.1098,1.1078,1.107,1.1058,1.1041,1.1027,1.1011,1.0997,1.0974,1.0958,1.0954,1.0946,1.0951,1.0951,1.0948,1.0923,1.0923,1.0959,1.0959,1.0959,1.0959,1.0959,1.0959,1.119,1.118,1.1166,1.1149,1.1133,1.1119,1.111,1.1097,1.1083,1.1066,1.1054,1.1039,1.102,1.1003,1.0989,1.0983,1.0979,1.0987,1.0978,1.0954,1.095,1.0946,1.0946,1.0986,1.0986,1.1004,1.1005,1.1005]},{"header":{"parameterUnit":"m.s-1","parameterCategory":1,"la1":30.2991,"la2":30.254,"lo1":-89.0895,"lo2":-89.0444,"dy":0.0017,"dx":0.0017,"nx":28,"ny":28,"refTime":"2025-05-20T03:00:00:Z","depth":0,"parameterNumber":3,"parameterNumberName":"V-component_of_WINDS"},"data":[0,0,0,0,0,0,0,0,0,0,0,0,0,0,0,0,0,0,0,0,0,0,0,0,0,0,0,0,0,0,0,0,0,0,0,0,0,0,0,0,0,0,0,0,0,0,0,0,0,0,0,0,0,0,0,0,0,0,6.4753,6.4753,0,6.4778,6.4778,6.4778,6.4774,6.4773,6.4773,6.4773,6.4792,6.4793,6.4794,0,0,0,0,0,0,0,0,0,0,0,0,0,6.4698,6.4699,6.4753,6.4753,6.4753,6.4778,6.4778,6.4778,6.4774,6.4773,6.4773,6.4772,6.4792,6.4793,6.4794,0,0,0,0,0,0,0,0,0,0,0,0,0,6.4722,6.4699,6.4753,6.4754,6.4755,6.4777,6.4778,6.4778,6.4774,6.4773,6.4773,6.4772,6.4791,6.4793,6.4794,6.4815,0,0,6.4798,6.4799,0,0,0,0,0,0,0,0,6.472,6.4724,6.4754,6.4754,6.4755,6.4772,6.4766,6.479,6.4774,6.4766,6.4773,6.4772,6.4785,6.4787,6.4793,6.4816,6.4817,6.4798,6.4799,6.48,6.48,0,0,0,0,0,0,0,6.4719,6.4723,6.4762,6.4754,6.4755,6.4753,6.4755,6.477,6.4779,6.4767,6.4767,6.477,6.4786,6.4792,6.4793,6.4817,6.4798,6.4799,6.48,6.4801,6.486,6.4861,0,0,0,0,0,0,6.4717,6.4721,6.4762,6.4763,6.4736,6.4754,6.4757,6.4767,6.4779,6.478,6.4771,6.477,6.479,6.4792,6.4794,6.4821,6.48,6.4801,6.4802,6.486,6.4861,6.4862,0,0,0,0,0,0,6.4716,6.4721,6.4761,6.4742,6.4747,6.4756,6.4767,6.4768,6.4774,6.4782,6.4783,6.4776,6.4789,6.4792,6.4811,6.4821,6.4801,6.4803,6.4859,6.486,6.4861,6.4874,0,0,0,0,0,0,6.4715,6.4721,6.4729,6.4743,6.4748,6.4778,6.4767,6.4769,6.4777,6.4776,6.4787,6.4788,6.4789,6.4809,6.4812,6.4823,6.4804,6.4858,6.4859,6.4861,6.4872,6.4875,6.4877,0,0,0,0,0,6.4713,6.473,6.473,6.4734,6.4759,6.4778,6.4781,6.4784,6.4778,6.4786,6.4792,6.4787,6.482,6.4811,6.4814,6.4826,6.4857,6.4859,6.4861,6.4871,6.4874,6.4877,0,0,0,0,0,0,6.4714,6.4731,6.4731,6.4753,6.4765,6.4778,6.4788,6.4788,6.4799,6.4797,6.4799,6.4801,6.4821,6.4825,6.4814,6.4848,6.4838,6.484,6.4844,6.4848,6.485,6.4848,6.4805,0,0,0,0,0,6.4717,6.4733,6.4747,6.4765,6.4771,6.4779,6.4787,6.4789,6.48,6.4804,6.481,6.482,6.4832,6.484,6.4852,6.4873,6.4876,6.4883,6.4886,6.4888,6.489,6.4903,6.4907,6.4867,6.4867,6.4867,0,0,6.4723,6.4735,6.4744,6.4766,6.4774,6.479,6.4782,6.4798,6.4809,6.4805,6.4824,6.483,6.484,6.4861,6.487,6.4865,6.4902,6.489,6.4892,6.4892,6.4905,6.4909,6.4912,6.4868,6.4868,6.4868,0,0,6.4742,6.4752,6.477,6.4781,6.4796,6.4802,6.4806,6.482,6.4824,6.4844,6.4842,6.4855,6.4876,6.4884,6.4891,6.4918,6.4914,6.4922,6.4935,6.4948,6.4951,6.4954,6.4964,6.4967,6.4924,6.4924,6.4924,0,6.4747,6.4772,6.4778,6.4796,6.4806,6.4807,6.4824,6.4833,6.485,6.4857,6.4852,6.4881,6.4887,6.4911,6.4918,6.4924,6.4928,6.492,6.495,6.4953,6.4956,6.4965,6.4969,6.4925,6.4924,6.4924,6.4924,0,6.4777,6.4795,6.4807,6.4828,6.4839,6.4856,6.4865,6.4875,6.4877,6.4883,6.4904,6.4913,6.4928,6.4934,6.4934,6.4958,6.4955,6.495,6.4939,6.496,6.4969,6.4973,6.4926,6.4925,6.4925,6.4925,0,0,6.4794,6.4822,6.4826,6.4837,6.4856,6.4869,6.4886,6.4904,6.4913,6.4926,6.4941,6.4961,6.4957,6.4965,6.4967,6.4979,6.5001,6.4973,6.4973,6.4978,6.5029,6.5032,6.5036,6.4999,6.5,6.5001,6.5028,0,6.4816,6.485,6.4858,6.4887,6.4904,6.4907,6.4922,6.4935,6.4942,6.4956,6.4963,6.4978,6.4972,6.4977,6.4989,6.4996,6.5011,6.4994,6.5012,6.5013,6.5009,6.5041,6.5044,6.5069,6.5031,6.5032,6.5032,0,6.4844,6.4862,6.4893,6.4913,6.492,6.4934,6.4952,6.4966,6.4981,6.4985,6.4997,6.4998,6.5016,6.5007,6.5031,6.502,6.5028,6.5033,6.5034,6.5035,6.5023,6.5043,6.5077,6.5081,6.5038,6.5038,6.5037,0,6.4855,6.4886,6.4909,6.4918,6.4941,6.4952,6.4961,6.4976,6.4987,6.5002,6.5009,6.5025,6.5034,6.5046,6.5052,6.5044,6.5077,6.5067,6.508,6.508,6.5086,6.5085,6.5122,6.5092,6.5092,6.5092,6.5092,0,6.4877,6.4896,6.4915,6.4929,6.4951,6.4961,6.4981,6.4991,6.5005,6.502,6.5023,6.5037,6.5044,6.5059,6.5064,6.5084,6.5088,6.5091,6.5092,6.5091,6.5091,6.5096,6.5094,6.5093,6.5093,6.5092,6.5092,0,6.4892,6.4905,6.4931,6.4953,6.4959,6.4974,6.4992,6.5005,6.5014,6.5034,6.5039,6.5052,6.507,6.5078,6.5099,6.5102,6.5126,6.5125,6.5122,6.5122,6.5135,6.5134,6.5176,6.5182,6.5148,6.5148,6.5148,0,6.4905,6.4921,6.4946,6.4958,6.4969,6.4988,6.5001,6.5011,6.5024,6.5044,6.5055,6.5074,6.509,6.5119,6.5129,6.5145,6.5145,6.5159,6.5147,6.5147,6.5146,6.5145,6.5147,6.5161,6.5161,6.5161,6.5161,0,6.4928,6.4935,6.4954,6.4977,6.4992,6.501,6.5026,6.5036,6.5049,6.5063,6.5083,6.5096,6.512,6.5139,6.5157,6.5165,6.5165,6.5166,6.517,6.5168,6.5166,6.5168,6.5127,6.5164,6.5164,6.5163,6.5163,6.5163,6.4942,6.4957,6.4978,6.5,6.5015,6.5032,6.5047,6.5059,6.5077,6.51,6.5105,6.5126,6.5143,6.5168,6.5177,6.5193,6.519,6.5195,6.5197,6.5198,6.5199,6.5164,6.5197,6.5196,6.5196,6.5196,6.5196,0,6.4965,6.498,6.5001,6.5027,6.5044,6.5047,6.5066,6.508,6.51,6.5117,6.5134,6.5158,6.5177,6.519,6.5209,6.522,6.5221,6.5225,6.5224,6.5226,6.5201,6.5196,6.5224,6.5224,6.5224,6.5224,6.5224,6.5224,6.498,6.5006,6.5016,6.505,6.5064,6.5088,6.5099,6.5114,6.5128,6.5156,6.5174,6.5183,6.5198,6.5219,6.5237,6.524,6.5247,6.5251,6.5254,6.523,6.5227,6.5224,6.522,6.5252,6.5252,6.5277,6.5278,6.5278]}]]